Orbital Elements at Epoch 2459200.5 (2020-Dec-17.0) TDB
Reference: JPL 13 (heliocentric ecliptic J2000)
Element | Value | Uncertainty (1-sigma) | Units |
e | .2624853159554198 | 5.2062e-08 | |
a | 2.267049023735233 | 8.4943e-09 | au |
q | 1.671981944453665 | 1.1869e-07 | au |
i | 8.091093355706295 | 7.5141e-06 | deg |
node | 292.8401949316931 | 3.461e-05 | deg |
peri | 38.25214341223414 | 3.7054e-05 | deg |
M | 229.342833367695 | 1.398e-05 | deg |
tp | 2459653.002027625384 (2022-Mar-14.50202763) | 4.989e-05 | TDB |
period | 1246.77990610016 3.41 | 7.0072e-06 1.918e-08 | d yr |
n | .2887438257856231 | 1.6228e-09 | deg/d |
Q | 2.862116103016803 | 1.0724e-08 | au |
|
| | Orbit Determination Parameters
Additional Information
|